Kosmos-2024

operational
NORAD ID: 20026 Int'l Des: 1989-039 Owner: NPOPM Country: SU
MEOCIRCULAR

Kosmos-2024について

説明を読み込み中...

リアルタイム位置

3D地球を読み込み中...

次回通過

高度履歴

Altitude vs Time

uPlot chart will show altitude changes over time

軌道要素

1 20026U 89039C 26063.18779878 -.00000046 00000-0 00000+0 0 9991
2 20026 64.9977 314.1551 0020465 213.4075 318.7281 2.13204552286261
Epoch: Mar 4, 2026 • Age: 14 hours

現在のステータス

高度 19145.9 km
速度 3.95 km/s
衛星直下点 60.14°N, 71.65°E
打ち上げ日 May 31, 1989
運用期間 36.7 years
タイプ other

技術仕様

分類 Payload
質量 1230.00 kg
乾燥質量 1230.00 kg
総質量 1230.00 kg
長さ 1.30 m
直径 1.30 m
スパン 1.30 m
形状 Sphere
製造者 NPOPM
バスタイプ Etalon
フェーズステータス In Orbit
所有者/国 NPOPM/SU

大規模コンステレーション

Loading constellations...